GW2413 Weather Reports


Display with metric or nautical units.
time (UTC)temp
F
wind
direction
speed
MPH
gust
MPH
rain 1hr
in
rain 24hr
in
rain mn
in
humidity
%
barometer
mb
20260505021703 67 151 0.0 0.0 0.00 0.00 0.00 48 1010.7
20260505021200 67 158 0.0 0.0 0.00 0.00 0.00 49 1010.7
20260505020655 67 160 0.0 1.0 0.00 0.00 0.00 49 1010.6
20260505020151 67 149 1.0 1.0 0.00 0.00 0.00 48 1010.5
20260505015649 67 161 0.0 0.0 0.00 0.00 0.00 49 1010.6
20260505015145 68 172 0.0 0.0 0.00 0.00 0.00 48 1010.8
20260505014642 68 107 0.0 0.0 0.00 0.00 0.00 49 1010.4
20260505014139 68 120 2.0 2.0 0.00 0.00 0.00 48 1010.6
20260505013636 68 129 0.0 0.0 0.00 0.00 0.00 49 1010.5
20260505013133 68 133 1.0 2.0 0.00 0.00 0.00 49 1010.2
20260505012632 69 141 2.0 3.0 0.00 0.00 0.00 48 1010.5
20260505012128 69 139 1.0 1.0 0.00 0.00 0.00 47 1010.4
20260505011624 69 110 1.0 1.0 0.00 0.00 0.00 47 1010.0
20260505011122 69 134 0.0 0.0 0.00 0.00 0.00 47 1010.3
20260505010617 70 135 0.0 1.0 0.00 0.00 0.00 46 1010.2
20260505010114 70 128 0.0 0.0 0.00 0.00 0.00 46 1010.3
20260505005610 70 110 0.0 0.0 0.00 0.00 0.00 45 1010.3
20260505005107 70 125 0.0 0.0 0.00 0.00 0.00 44 1010.3
20260505004604 70 147 0.0 0.0 0.00 0.00 0.00 43 1010.2
20260505004101 71 137 0.0 0.0 0.00 0.00 0.00 42 1010.1
20260505003558 71 79 0.0 0.0 0.00 0.00 0.00 42 1010.0
20260505003055 71 106 0.0 1.0 0.00 0.00 0.00 42 1009.9
20260505002555 71 139 0.0 1.0 0.00 0.00 0.00 41 1010.1
20260505002049 72 102 0.0 0.0 0.00 0.00 0.00 40 1009.7
20260505001546 72 108 1.0 1.0 0.00 0.00 0.00 39 1009.7
20260505001043 72 164 3.0 3.0 0.00 0.00 0.00 40 1009.9
20260505000541 72 125 1.0 1.0 0.00 0.00 0.00 40 1010.0
20260505000038 72 157 5.0 7.0 0.00 0.00 0.00 39 1009.8
20260504235535 73 142 0.0 0.0 0.00 0.00 0.00 39 1009.9
20260504235031 73 210 2.0 3.0 0.00 0.00 0.00 39 1009.9
20260504234528 73 152 2.0 2.0 0.00 0.00 0.00 38 1009.6
20260504234025 73 100 0.0 0.0 0.00 0.00 0.00 39 1009.5
20260504233521 73 108 0.0 1.0 0.00 0.00 0.00 39 1009.6
20260504233018 73 144 1.0 1.0 0.00 0.00 0.00 38 1009.9
20260504232515 74 239 1.0 2.0 0.00 0.00 0.00 38 1009.7
20260504232012 73 99 4.0 7.0 0.00 0.00 0.00 37 1009.6
20260504231509 74 198 2.0 2.0 0.00 0.00 0.00 37 1009.6
20260504231005 74 134 3.0 5.0 0.00 0.00 0.00 36 1009.7
20260504230501 74 120 1.0 1.0 0.00 0.00 0.00 36 1009.6
20260504230000 75 261 2.0 3.0 0.00 0.00 0.00 36 1009.5
20260504225457 75 158 1.0 2.0 0.00 0.00 0.00 35 1009.7
20260504224954 75 296 1.0 2.0 0.00 0.00 0.00 35 1009.5
20260504224450 75 133 3.0 6.0 0.00 0.00 0.00 35 1009.5
20260504223947 75 202 5.0 10.0 0.00 0.00 0.00 34 1009.5
20260504223444 75 190 5.0 7.0 0.00 0.00 0.00 34 1009.5
20260504222939 76 217 3.0 5.0 0.00 0.00 0.00 34 1009.6
20260504222437 76 137 1.0 1.0 0.00 0.00 0.00 34 1009.6
20260504221935 76 217 7.0 10.0 0.00 0.00 0.00 34 1009.4
20260504221431 76 108 1.0 2.0 0.00 0.00 0.00 34 1009.4
20260504220928 76 148 3.0 3.0 0.00 0.00 0.00 34 1009.4
20260504220425 76 192 0.0 1.0 0.00 0.00 0.00 35 1009.5
20260504215922 76 147 1.0 1.0 0.00 0.00 0.00 34 1009.5
20260504215419 77 259 4.0 7.0 0.00 0.00 0.00 34 1009.7
20260504214915 77 139 2.0 2.0 0.00 0.00 0.00 34 1009.6
20260504214412 77 288 2.0 3.0 0.00 0.00 0.00 33 1009.4
20260504213909 77 240 3.0 3.0 0.00 0.00 0.00 33 1009.6
20260504213404 76 229 1.0 2.0 0.00 0.00 0.00 33 1009.6
20260504212902 76 265 2.0 3.0 0.00 0.00 0.00 34 1009.7
20260504212358 77 167 6.0 10.0 0.00 0.00 0.00 33 1009.6
20260504211856 77 124 1.0 2.0 0.00 0.00 0.00 34 1009.7
20260504211352 77 118 2.0 3.0 0.00 0.00 0.00 33 1009.5
20260504210849 78 144 3.0 5.0 0.00 0.00 0.00 32 1009.8
20260504210346 77 157 2.0 2.0 0.00 0.00 0.00 33 1009.4
20260504205843 77 152 3.0 5.0 0.00 0.00 0.00 32 1009.5
20260504205341 78 201 7.0 8.0 0.00 0.00 0.00 31 1009.6
20260504204839 78 142 0.0 1.0 0.00 0.00 0.00 32 1009.6
20260504204337 77 82 1.0 1.0 0.00 0.00 0.00 31 1009.7
20260504203836 79 188 1.0 2.0 0.00 0.00 0.00 30 1009.6
20260504203333 78 120 1.0 1.0 0.00 0.00 0.00 31 1009.6
20260504202828 79 174 1.0 1.0 0.00 0.00 0.00 29 1009.6
20260504202326 80 107 2.0 3.0 0.00 0.00 0.00 30 1009.8
20260504201822 79 117 0.0 0.0 0.00 0.00 0.00 31 1009.8
20260504201320 79 214 3.0 5.0 0.00 0.00 0.00 29 1009.9
20260504200817 79 164 1.0 1.0 0.00 0.00 0.00 30 1009.9
20260504200314 79 110 1.0 2.0 0.00 0.00 0.00 30 1010.1
20260504195810 79 262 4.0 5.0 0.00 0.00 0.00 28 1010.4
20260504195306 80 226 1.0 2.0 0.00 0.00 0.00 28 1010.3
20260504194803 78 192 2.0 3.0 0.00 0.00 0.00 31 1010.2
20260504194259 77 222 5.0 7.0 0.00 0.00 0.00 30 1010.2
20260504193755 79 248 3.0 5.0 0.00 0.00 0.00 29 1010.3
20260504193253 78 199 4.0 7.0 0.00 0.00 0.00 30 1010.4
20260504192751 79 238 2.0 5.0 0.00 0.00 0.00 29 1010.6
20260504192249 79 88 1.0 1.0 0.00 0.00 0.00 29 1010.5
20260504191747 79 271 4.0 5.0 0.00 0.00 0.00 30 1010.7
20260504191244 78 279 2.0 5.0 0.00 0.00 0.00 30 1010.7
20260504190739 78 85 1.0 2.0 0.00 0.00 0.00 31 1010.9
20260504190236 78 123 1.0 1.0 0.00 0.00 0.00 30 1011.0
20260504185732 78 81 2.0 3.0 0.00 0.00 0.00 31 1010.9
20260504185229 77 107 3.0 6.0 0.00 0.00 0.00 31 1011.2
20260504184725 77 206 2.0 2.0 0.00 0.00 0.00 31 1011.4
20260504184221 77 122 3.0 5.0 0.00 0.00 0.00 32 1011.5
20260504183717 75 108 1.0 2.0 0.00 0.00 0.00 32 1011.4
20260504183214 77 222 6.0 7.0 0.00 0.00 0.00 30 1011.5
20260504182713 77 133 2.0 3.0 0.00 0.00 0.00 31 1011.7
20260504182209 77 130 1.0 1.0 0.00 0.00 0.00 33 1011.6
20260504181707 77 134 1.0 1.0 0.00 0.00 0.00 32 1011.9
20260504181204 77 105 2.0 2.0 0.00 0.00 0.00 32 1011.9
20260504180703 77 272 1.0 5.0 0.00 0.00 0.00 33 1012.0
20260504180202 77 146 1.0 2.0 0.00 0.00 0.00 33 1012.0
20260504175658 76 145 0.0 1.0 0.00 0.00 0.00 33 1012.0
20260504175155 76 170 1.0 1.0 0.00 0.00 0.00 33 1012.1
20260504174653 74 170 2.0 2.0 0.00 0.00 0.00 32 1012.3
20260504174150 75 305 2.0 2.0 0.00 0.00 0.00 33 1012.3
20260504173647 75 205 4.0 6.0 0.00 0.00 0.00 34 1012.1
20260504173144 74 199 4.0 6.0 0.00 0.00 0.00 33 1012.1
20260504172641 75 224 2.0 3.0 0.00 0.00 0.00 34 1012.6
20260504172137 73 241 2.0 3.0 0.00 0.00 0.00 33 1012.7
20260504171633 74 150 3.0 3.0 0.00 0.00 0.00 34 1012.5
20260504171131 73 231 1.0 2.0 0.00 0.00 0.00 34 1012.7
20260504170627 73 192 5.0 8.0 0.00 0.00 0.00 34 1012.7
20260504170125 74 243 3.0 5.0 0.00 0.00 0.00 35 1013.0
20260504151010 70 238 2.0 3.0 0.00 0.00 0.00 37 1014.3
20260504150508 70 221 3.0 3.0 0.00 0.00 0.00 35 1014.1
20260504140933 65 167 1.0 1.0 0.00 0.00 0.00 42 1014.1
20260504140430 64 101 0.0 1.0 0.00 0.00 0.00 43 1014.2
20260504130355 58 212 3.0 3.0 0.00 0.00 0.00 49 1015.0
20260504120318 53 127 2.0 2.0 0.00 0.00 0.00 61 1015.1
20260504110242 50 92 0.0 0.0 0.00 0.00 0.00 67 1015.6
20260504100200 50 111 0.0 0.0 0.00 0.00 0.00 61 1015.3
20260504090122 51 156 2.0 2.0 0.00 0.00 0.00 62 1015.3
20260504081552 51 119 0.0 0.0 0.00 0.00 0.00 63 1015.5
20260504081048 51 123 0.0 0.0 0.00 0.00 0.00 62 1015.5
20260504080545 51 118 0.0 0.0 0.00 0.00 0.00 62 1015.5
20260504050358 46 90 0.0 0.0 0.00 0.00 0.00 72 1015.8
20260504045855 46 87 0.0 0.0 0.00 0.00 0.00 73 1015.7
20260504045350 45 85 0.0 0.0 0.00 0.00 0.00 72 1015.7
20260504044847 45 85 0.0 0.0 0.00 0.00 0.00 72 1015.8
20260504044344 46 84 0.0 0.0 0.00 0.00 0.00 72 1015.7
20260504043842 45 84 0.0 0.0 0.00 0.00 0.00 72 1015.8
20260504043338 45 81 0.0 0.0 0.00 0.00 0.00 72 1015.9
20260504042836 45 85 0.0 0.0 0.00 0.00 0.00 73 1015.6
20260504042332 44 85 0.0 0.0 0.00 0.00 0.00 73 1015.8
20260504041828 44 84 0.0 0.0 0.00 0.00 0.00 73 1015.7
20260504041325 44 83 0.0 0.0 0.00 0.00 0.00 74 1015.6
20260504040821 43 87 0.0 0.0 0.00 0.00 0.00 74 1015.6
20260504040319 43 87 0.0 0.0 0.00 0.00 0.00 74 1015.7
20260504035814 43 89 0.0 0.0 0.00 0.00 0.00 73 1015.9
20260504035312 44 89 0.0 0.0 0.00 0.00 0.00 73 1015.8
20260504034809 44 86 0.0 0.0 0.00 0.00 0.00 72 1015.9
20260504034307 44 86 0.0 0.0 0.00 0.00 0.00 71 1015.9
20260504033804 44 86 0.0 0.0 0.00 0.00 0.00 70 1015.8
20260504033301 44 86 0.0 0.0 0.00 0.00 0.00 70 1015.6
20260504032758 45 86 0.0 0.0 0.00 0.00 0.00 69 1015.5
20260504032255 45 86 0.0 0.0 0.00 0.00 0.00 67 1015.5
20260504031752 45 87 0.0 0.0 0.00 0.00 0.00 67 1015.4
20260504031249 46 86 0.0 0.0 0.00 0.00 0.00 66 1015.6
20260504030745 46 86 0.0 0.0 0.00 0.00 0.00 66 1015.7
20260504030242 46 86 0.0 0.0 0.00 0.00 0.00 65 1015.4
20260504025738 46 86 0.0 0.0 0.00 0.00 0.00 65 1015.5
20260504025236 45 86 0.0 0.0 0.00 0.00 0.00 65 1015.5
20260504024732 46 88 0.0 0.0 0.00 0.00 0.00 63 1015.6
20260504024229 46 88 0.0 0.0 0.00 0.00 0.00 63 1015.5
20260504023726 46 87 0.0 0.0 0.00 0.00 0.00 62 1015.4
20260504023222 46 89 0.0 0.0 0.00 0.00 0.00 62 1015.6
20260504022718 46 89 0.0 0.0 0.00 0.00 0.00 61 1015.3
20260504022215 46 88 0.0 0.0 0.00 0.00 0.00 61 1015.4